STARLINK-1263 (45405 NORAD) Tracking and Keplerian Element Data

This shows tracking and keplerian element data for the satellite.

Feedback or suggestion? Click here.




ElementValue
Catalog45405
NameSTARLINK-1263
Epoch Orbit1076
Epoch Day144.83334491
Epoch Year2020
RAAN289.5496
Inclination52.9999
Eccentricity0.0001328
Argument of Perigee35.4453
Mean Anonmoly152.5307
Mean Motion15.62730347
Decay Rate0.00064373
L11 45405U 20019AX 20144.83334491 .00064373 00000-0 70390-3 0 9991
L22 45405 52.9999 289.5496 0001328 35.4453 152.5307 15.62730347 10769

Live tracking and technical data element details for STARLINK-1263 (NORAD 45405). STARLINK-1263 can be tracked NOW for your location showing map with azimuth and elevation plus other details from your city location.

Track the satellite on the map from your city or location and see movement details for azimuth, elevation, latitude, longitude, range, height, and movement on the map or in text.







IsCatalogInMostPopularTable: catalog: 45405, numindb: 14
Update: records affected: 1



GetName: 45405 STARLINK-1263

Hit Count: updated at: Mon, 25 May 2020 08:52:21 GMT